Year,Month,Day,Hour,Minute,Value (Times are PST for windspeed in km/hr)
2010,04,24,00,00,9.40
2010,04,24,00,01,15.60
2010,04,24,00,02,13.90
2010,04,24,00,03,17.80
2010,04,24,00,04,12.00
2010,04,24,00,05,12.10
2010,04,24,00,06,12.00
2010,04,24,00,07,19.20
2010,04,24,00,08,19.30
2010,04,24,00,09,18.10
2010,04,24,00,10,16.70
2010,04,24,00,11,12.60
2010,04,24,00,12,14.70
2010,04,24,00,13,13.90
2010,04,24,00,14,12.50
2010,04,24,00,15,18.30
2010,04,24,00,16,14.40
2010,04,24,00,17,11.20
2010,04,24,00,18,18.30
2010,04,24,00,19,11.30
2010,04,24,00,20,13.60
2010,04,24,00,21,19.80
2010,04,24,00,22,17.80
2010,04,24,00,23,13.70
2010,04,24,00,24,14.10
2010,04,24,00,25,15.10
2010,04,24,00,26,9.00
2010,04,24,00,27,11.80
2010,04,24,00,28,11.50
2010,04,24,00,29,12.20
2010,04,24,00,30,8.20
2010,04,24,00,31,12.70
2010,04,24,00,32,11.70
2010,04,24,00,33,11.10
2010,04,24,00,34,14.80
2010,04,24,00,35,14.40
2010,04,24,00,36,10.70
2010,04,24,00,37,10.80
2010,04,24,00,38,12.30
2010,04,24,00,39,10.10
2010,04,24,00,40,9.70
2010,04,24,00,41,8.50
2010,04,24,00,42,11.70
2010,04,24,00,43,6.40
2010,04,24,00,44,8.40
2010,04,24,00,45,13.80
2010,04,24,00,46,11.10
2010,04,24,00,47,11.80
2010,04,24,00,48,12.00
2010,04,24,00,49,11.80
2010,04,24,00,50,9.30
2010,04,24,00,51,8.30
2010,04,24,00,52,8.80
2010,04,24,00,53,8.80
2010,04,24,00,54,6.50
2010,04,24,00,55,4.90
2010,04,24,00,56,9.20
2010,04,24,00,57,6.10
2010,04,24,00,58,6.50
2010,04,24,00,59,10.80
2010,04,24,01,00,9.30
2010,04,24,01,01,7.90
2010,04,24,01,02,10.60
2010,04,24,01,03,12.80
2010,04,24,01,04,7.40
2010,04,24,01,05,13.80
2010,04,24,01,06,15.70
2010,04,24,01,07,16.60
2010,04,24,01,08,14.50
2010,04,24,01,09,13.60
2010,04,24,01,10,16.20
2010,04,24,01,11,11.30
2010,04,24,01,12,11.50
2010,04,24,01,13,13.60
2010,04,24,01,14,9.70
2010,04,24,01,15,10.20
2010,04,24,01,16,12.90
2010,04,24,01,17,13.50
2010,04,24,01,18,7.80
2010,04,24,01,19,7.90
2010,04,24,01,20,11.30
2010,04,24,01,21,6.90
2010,04,24,01,22,8.30
2010,04,24,01,23,10.30
2010,04,24,01,24,12.20
2010,04,24,01,25,11.20
2010,04,24,01,26,10.40
2010,04,24,01,27,7.60
2010,04,24,01,28,10.80
2010,04,24,01,29,9.70
2010,04,24,01,30,9.90
2010,04,24,01,31,9.60
2010,04,24,01,32,8.60
2010,04,24,01,33,9.40
2010,04,24,01,34,9.70
2010,04,24,01,35,9.60
2010,04,24,01,36,12.10
2010,04,24,01,37,11.60
2010,04,24,01,38,9.50
2010,04,24,01,39,7.40
2010,04,24,01,40,9.00
2010,04,24,01,41,11.00
2010,04,24,01,42,10.50
2010,04,24,01,43,8.00
2010,04,24,01,44,6.90
2010,04,24,01,45,8.30
2010,04,24,01,46,11.10
2010,04,24,01,47,8.50
2010,04,24,01,48,12.80
2010,04,24,01,49,13.70
2010,04,24,01,50,10.80
2010,04,24,01,51,15.00
2010,04,24,01,52,10.00
2010,04,24,01,53,9.30
2010,04,24,01,54,15.00
2010,04,24,01,55,13.70
2010,04,24,01,56,11.30
2010,04,24,01,57,5.90
2010,04,24,01,58,6.40
2010,04,24,01,59,7.70
2010,04,24,02,00,12.10
2010,04,24,02,01,12.00
2010,04,24,02,02,9.90
2010,04,24,02,03,5.10
2010,04,24,02,04,5.00
2010,04,24,02,05,9.30
2010,04,24,02,06,9.10
2010,04,24,02,07,4.50
2010,04,24,02,08,7.20
2010,04,24,02,09,5.90
2010,04,24,02,10,6.90
2010,04,24,02,11,10.20
2010,04,24,02,12,6.10
2010,04,24,02,13,4.80
2010,04,24,02,14,6.30
2010,04,24,02,15,7.20
2010,04,24,02,16,5.80
2010,04,24,02,17,6.50
2010,04,24,02,18,11.00
2010,04,24,02,19,9.50
2010,04,24,02,20,13.90
2010,04,24,02,21,10.00
2010,04,24,02,22,9.60
2010,04,24,02,23,7.80
2010,04,24,02,24,6.30
2010,04,24,02,25,6.80
2010,04,24,02,26,9.90
2010,04,24,02,27,11.80
2010,04,24,02,28,10.00
2010,04,24,02,29,10.90
2010,04,24,02,30,7.20
2010,04,24,02,31,9.40
2010,04,24,02,32,9.40
2010,04,24,02,33,9.20
2010,04,24,02,34,10.70
2010,04,24,02,35,7.80
2010,04,24,02,36,8.60
2010,04,24,02,37,8.30
2010,04,24,02,38,10.50
2010,04,24,02,39,7.50
2010,04,24,02,40,13.20
2010,04,24,02,41,9.60
2010,04,24,02,42,8.20
2010,04,24,02,43,9.00
2010,04,24,02,44,14.40
2010,04,24,02,45,11.80
2010,04,24,02,46,7.80
2010,04,24,02,47,8.50
2010,04,24,02,48,7.00
2010,04,24,02,49,5.40
2010,04,24,02,50,5.40
2010,04,24,02,51,7.80
2010,04,24,02,52,6.40
2010,04,24,02,53,10.60
2010,04,24,02,54,8.30
2010,04,24,02,55,10.60
2010,04,24,02,56,10.90
2010,04,24,02,57,9.90
2010,04,24,02,58,7.90
2010,04,24,02,59,9.50
2010,04,24,03,00,7.40
2010,04,24,03,01,6.80
2010,04,24,03,02,6.00
2010,04,24,03,03,9.60
2010,04,24,03,04,8.50
2010,04,24,03,05,7.60
2010,04,24,03,06,11.60
2010,04,24,03,07,12.10
2010,04,24,03,08,17.00
2010,04,24,03,09,7.90
2010,04,24,03,10,9.60
2010,04,24,03,11,8.40
2010,04,24,03,12,8.10
2010,04,24,03,13,9.80
2010,04,24,03,14,11.50
2010,04,24,03,15,6.00
2010,04,24,03,16,11.40
2010,04,24,03,17,7.50
2010,04,24,03,18,7.10
2010,04,24,03,19,3.70
2010,04,24,03,20,6.00
2010,04,24,03,21,13.90
2010,04,24,03,22,10.70
2010,04,24,03,23,7.00
2010,04,24,03,24,8.50
2010,04,24,03,25,9.30
2010,04,24,03,26,8.20
2010,04,24,03,27,8.30
2010,04,24,03,28,6.00
2010,04,24,03,29,4.10
2010,04,24,03,30,1.60
2010,04,24,03,31,8.00
2010,04,24,03,32,14.00
2010,04,24,03,33,16.20
2010,04,24,03,34,10.30
2010,04,24,03,35,10.50
2010,04,24,03,36,9.00
2010,04,24,03,37,9.60
2010,04,24,03,38,7.80
2010,04,24,03,39,12.10
2010,04,24,03,40,9.70
2010,04,24,03,41,9.70
2010,04,24,03,42,12.10
2010,04,24,03,43,10.70
2010,04,24,03,44,9.70
2010,04,24,03,45,12.00
2010,04,24,03,46,25.70
2010,04,24,03,47,18.00
2010,04,24,03,48,18.50
2010,04,24,03,49,18.30
2010,04,24,03,50,21.50
2010,04,24,03,51,24.40
2010,04,24,03,52,22.10
2010,04,24,03,53,20.30
2010,04,24,03,54,17.10
2010,04,24,03,55,17.50
2010,04,24,03,56,19.50
2010,04,24,03,57,12.30
2010,04,24,03,58,15.20
2010,04,24,03,59,12.20
2010,04,24,04,00,9.70
2010,04,24,04,01,12.90
2010,04,24,04,02,13.80
2010,04,24,04,03,16.30
2010,04,24,04,04,11.70
2010,04,24,04,05,10.30
2010,04,24,04,06,9.60
2010,04,24,04,07,17.10
2010,04,24,04,08,19.10
2010,04,24,04,09,12.40
2010,04,24,04,10,10.20
2010,04,24,04,11,9.20
2010,04,24,04,12,11.80
2010,04,24,04,13,11.90
2010,04,24,04,14,9.20
2010,04,24,04,15,16.00
2010,04,24,04,16,21.00
2010,04,24,04,17,14.70
2010,04,24,04,18,15.80
2010,04,24,04,19,11.20
2010,04,24,04,20,14.30
2010,04,24,04,21,13.00
2010,04,24,04,22,6.40
2010,04,24,04,23,12.00
2010,04,24,04,24,12.60
2010,04,24,04,25,15.20
2010,04,24,04,26,14.60
2010,04,24,04,27,10.80
2010,04,24,04,28,8.30
2010,04,24,04,29,14.80
2010,04,24,04,30,16.00
2010,04,24,04,31,16.20
2010,04,24,04,32,18.40
2010,04,24,04,33,11.60
2010,04,24,04,34,7.80
2010,04,24,04,35,19.00
2010,04,24,04,36,15.80
2010,04,24,04,37,14.10
2010,04,24,04,38,14.50
2010,04,24,04,39,13.70
2010,04,24,04,40,10.70
2010,04,24,04,41,17.80
2010,04,24,04,42,11.10
2010,04,24,04,43,9.40
2010,04,24,04,44,7.50
2010,04,24,04,45,4.50
2010,04,24,04,46,10.10
2010,04,24,04,47,13.80
2010,04,24,04,48,11.30
2010,04,24,04,49,6.90
2010,04,24,04,50,5.70
2010,04,24,04,51,7.10
2010,04,24,04,52,6.60
2010,04,24,04,53,8.40
2010,04,24,04,54,5.90
2010,04,24,04,55,5.70
2010,04,24,04,56,7.60
2010,04,24,04,57,9.50
2010,04,24,04,58,9.30
2010,04,24,04,59,6.50
2010,04,24,05,00,9.00
2010,04,24,05,01,7.70
2010,04,24,05,02,5.80
2010,04,24,05,03,7.80
2010,04,24,05,04,5.40
2010,04,24,05,05,4.60
2010,04,24,05,06,9.20
2010,04,24,05,07,11.00
2010,04,24,05,08,12.20
2010,04,24,05,09,11.10
2010,04,24,05,10,15.00
2010,04,24,05,11,7.60
2010,04,24,05,12,9.40
2010,04,24,05,13,12.70
2010,04,24,05,14,8.40
2010,04,24,05,15,6.20
2010,04,24,05,16,9.00
2010,04,24,05,17,8.20
2010,04,24,05,18,9.70
2010,04,24,05,19,12.50
2010,04,24,05,20,6.90
2010,04,24,05,21,11.00
2010,04,24,05,22,8.70
2010,04,24,05,23,8.30
2010,04,24,05,24,12.90
2010,04,24,05,25,7.40
2010,04,24,05,26,7.40
2010,04,24,05,27,9.40
2010,04,24,05,28,10.40
2010,04,24,05,29,10.50
2010,04,24,05,30,11.00
2010,04,24,05,31,8.70
2010,04,24,05,32,8.90
2010,04,24,05,33,9.50
2010,04,24,05,34,9.60
2010,04,24,05,35,13.00
2010,04,24,05,36,8.40
2010,04,24,05,37,10.60
2010,04,24,05,38,7.40
2010,04,24,05,39,15.20
2010,04,24,05,40,11.50
2010,04,24,05,41,8.90
2010,04,24,05,42,6.50
2010,04,24,05,43,11.30
2010,04,24,05,44,9.90
2010,04,24,05,45,6.90
2010,04,24,05,46,5.80
2010,04,24,05,47,4.60
2010,04,24,05,48,1.50
2010,04,24,05,49,5.10
2010,04,24,05,50,4.80
2010,04,24,05,51,7.70
2010,04,24,05,52,7.90
2010,04,24,05,53,7.40
2010,04,24,05,54,7.00
2010,04,24,05,55,7.40
2010,04,24,05,56,5.50
2010,04,24,05,57,5.90
2010,04,24,05,58,7.00
2010,04,24,05,59,6.80
2010,04,24,06,00,4.10
2010,04,24,06,01,5.60
2010,04,24,06,02,4.30
2010,04,24,06,03,2.80
2010,04,24,06,04,1.80
2010,04,24,06,05,6.10
2010,04,24,06,06,6.70
2010,04,24,06,07,5.10
2010,04,24,06,08,6.80
2010,04,24,06,09,7.90
2010,04,24,06,10,7.20
2010,04,24,06,11,9.70
2010,04,24,06,12,9.60
2010,04,24,06,13,9.80
2010,04,24,06,14,10.40
2010,04,24,06,15,9.30
2010,04,24,06,16,8.70
2010,04,24,06,17,7.00
2010,04,24,06,18,3.10
2010,04,24,06,19,2.80
2010,04,24,06,20,5.00
2010,04,24,06,21,6.60
2010,04,24,06,22,3.00
2010,04,24,06,23,3.70
2010,04,24,06,24,6.50
2010,04,24,06,25,6.50
2010,04,24,06,26,6.20
2010,04,24,06,27,4.80
2010,04,24,06,28,4.80
2010,04,24,06,29,3.00
2010,04,24,06,30,3.00
2010,04,24,06,31,12.50
2010,04,24,06,32,10.30
2010,04,24,06,33,4.20
2010,04,24,06,34,3.60
2010,04,24,06,35,7.20
2010,04,24,06,36,5.60
2010,04,24,06,37,5.00
2010,04,24,06,38,9.10
2010,04,24,06,39,7.50
2010,04,24,06,40,4.30
2010,04,24,06,41,6.00
2010,04,24,06,42,8.20
2010,04,24,06,43,5.70
2010,04,24,06,44,7.60
2010,04,24,06,45,9.50
2010,04,24,06,46,9.00
2010,04,24,06,47,6.40
2010,04,24,06,48,5.00
2010,04,24,06,49,2.10
2010,04,24,06,50,0.40
2010,04,24,06,51,4.30
2010,04,24,06,52,3.20
2010,04,24,06,53,5.30
2010,04,24,06,54,9.50
2010,04,24,06,55,7.80
2010,04,24,06,56,7.90
2010,04,24,06,57,7.30
2010,04,24,06,58,9.30
2010,04,24,06,59,9.00
2010,04,24,07,00,8.50
2010,04,24,07,01,9.30
2010,04,24,07,02,6.80
2010,04,24,07,03,8.90
2010,04,24,07,04,7.60
2010,04,24,07,05,8.90
2010,04,24,07,06,9.70
2010,04,24,07,07,7.30
2010,04,24,07,08,6.70
2010,04,24,07,09,5.30
2010,04,24,07,10,8.00
2010,04,24,07,11,7.50
2010,04,24,07,12,6.80
2010,04,24,07,13,8.90
2010,04,24,07,14,8.40
2010,04,24,07,15,11.20
2010,04,24,07,16,9.80
2010,04,24,07,17,8.50
2010,04,24,07,18,8.50
2010,04,24,07,19,6.80
2010,04,24,07,20,9.10
2010,04,24,07,21,10.60
2010,04,24,07,22,8.00
2010,04,24,07,23,8.00
2010,04,24,07,24,7.00
2010,04,24,07,25,7.40
2010,04,24,07,26,2.60
2010,04,24,07,27,3.70
2010,04,24,07,28,6.50
2010,04,24,07,29,5.10
2010,04,24,07,30,7.20
2010,04,24,07,31,6.70
2010,04,24,07,32,5.20
2010,04,24,07,33,4.60
2010,04,24,07,34,3.50
2010,04,24,07,35,2.80
2010,04,24,07,36,3.90
2010,04,24,07,37,3.40
2010,04,24,07,38,2.90
2010,04,24,07,39,4.10
2010,04,24,07,40,4.10
2010,04,24,07,41,4.00
2010,04,24,07,42,5.40
2010,04,24,07,43,7.30
2010,04,24,07,44,6.90
2010,04,24,07,45,3.00
2010,04,24,07,46,1.30
2010,04,24,07,47,2.90
2010,04,24,07,48,3.00
2010,04,24,07,49,3.90
2010,04,24,07,50,2.80
2010,04,24,07,51,3.10
2010,04,24,07,52,2.30
2010,04,24,07,53,2.50
2010,04,24,07,54,1.30
2010,04,24,07,55,0.00
2010,04,24,07,56,0.30
2010,04,24,07,57,2.00
2010,04,24,07,58,2.90
2010,04,24,07,59,2.90
2010,04,24,08,00,3.20
2010,04,24,08,01,4.00
2010,04,24,08,02,1.10
2010,04,24,08,03,4.80
2010,04,24,08,04,7.30
2010,04,24,08,05,7.50
2010,04,24,08,06,6.20
2010,04,24,08,07,5.60
2010,04,24,08,08,5.80
2010,04,24,08,09,2.90
2010,04,24,08,10,0.00
2010,04,24,08,11,1.70
2010,04,24,08,12,0.10
2010,04,24,08,13,7.10
2010,04,24,08,14,5.20
2010,04,24,08,15,1.40
2010,04,24,08,16,3.40
2010,04,24,08,17,3.60
2010,04,24,08,18,5.70
2010,04,24,08,19,3.50
2010,04,24,08,20,6.30
2010,04,24,08,21,7.00
2010,04,24,08,22,5.00
2010,04,24,08,23,7.60
2010,04,24,08,24,7.00
2010,04,24,08,25,5.70
2010,04,24,08,26,7.50
2010,04,24,08,27,4.40
2010,04,24,08,28,4.50
2010,04,24,08,29,7.20
2010,04,24,08,30,13.50
2010,04,24,08,31,13.60
2010,04,24,08,32,8.80
2010,04,24,08,33,9.90
2010,04,24,08,34,12.70
2010,04,24,08,35,7.80
2010,04,24,08,36,8.90
2010,04,24,08,37,8.00
2010,04,24,08,38,7.70
2010,04,24,08,39,5.50
2010,04,24,08,40,5.40
2010,04,24,08,41,5.20
2010,04,24,08,42,4.10
2010,04,24,08,43,8.20
2010,04,24,08,44,10.60
2010,04,24,08,45,13.80
2010,04,24,08,46,15.60
2010,04,24,08,47,13.20
2010,04,24,08,48,19.70
2010,04,24,08,49,12.10
2010,04,24,08,50,9.00
2010,04,24,08,51,10.30
2010,04,24,08,52,11.70
2010,04,24,08,53,5.40
2010,04,24,08,54,10.00
2010,04,24,08,55,13.40
2010,04,24,08,56,11.10
2010,04,24,08,57,10.90
2010,04,24,08,58,12.80
2010,04,24,08,59,11.90
2010,04,24,09,00,13.70
2010,04,24,09,01,11.50
2010,04,24,09,02,9.40
2010,04,24,09,03,13.20
2010,04,24,09,04,13.10
2010,04,24,09,05,9.40
2010,04,24,09,06,9.50
2010,04,24,09,07,13.10
2010,04,24,09,08,11.30
2010,04,24,09,09,11.00
2010,04,24,09,10,7.40
2010,04,24,09,11,7.10
2010,04,24,09,12,6.90
2010,04,24,09,13,11.90
2010,04,24,09,14,9.30
2010,04,24,09,15,8.90
2010,04,24,09,16,7.00
2010,04,24,09,17,10.40
2010,04,24,09,18,10.00
2010,04,24,09,19,7.80
2010,04,24,09,20,9.70
2010,04,24,09,21,9.10
2010,04,24,09,22,6.90
2010,04,24,09,23,12.00
2010,04,24,09,24,11.80
2010,04,24,09,25,12.80
2010,04,24,09,26,16.80
2010,04,24,09,27,10.20
2010,04,24,09,28,8.40
2010,04,24,09,29,6.30
2010,04,24,09,30,11.10
2010,04,24,09,31,10.70
2010,04,24,09,32,13.60
2010,04,24,09,33,15.40
2010,04,24,09,34,13.20
2010,04,24,09,35,11.10
2010,04,24,09,36,18.40
2010,04,24,09,37,20.10
2010,04,24,09,38,16.40
2010,04,24,09,39,15.30
2010,04,24,09,40,9.10
2010,04,24,09,41,15.70
2010,04,24,09,42,14.10
2010,04,24,09,43,13.90
2010,04,24,09,44,13.60
2010,04,24,09,45,7.40
2010,04,24,09,46,14.60
2010,04,24,09,47,15.80
2010,04,24,09,48,11.80
2010,04,24,09,49,17.80
2010,04,24,09,50,8.50
2010,04,24,09,51,11.00
2010,04,24,09,52,14.70
2010,04,24,09,53,12.90
2010,04,24,09,54,9.10
2010,04,24,09,55,12.40
2010,04,24,09,56,6.70
2010,04,24,09,57,5.70
2010,04,24,09,58,11.30
2010,04,24,09,59,4.10
2010,04,24,10,00,4.20
2010,04,24,10,01,10.20
2010,04,24,10,02,13.20
2010,04,24,10,03,12.60
2010,04,24,10,04,15.40
2010,04,24,10,05,17.30
2010,04,24,10,06,13.00
2010,04,24,10,07,12.80
2010,04,24,10,08,6.60
2010,04,24,10,09,7.60
2010,04,24,10,10,8.50
2010,04,24,10,11,14.80
2010,04,24,10,12,19.10
2010,04,24,10,13,12.10
2010,04,24,10,14,12.70
2010,04,24,10,15,15.70
2010,04,24,10,16,15.40
2010,04,24,10,17,14.20
2010,04,24,10,18,17.30
2010,04,24,10,19,10.00
2010,04,24,10,20,14.00
2010,04,24,10,21,9.30
2010,04,24,10,22,5.70
2010,04,24,10,23,8.50
2010,04,24,10,24,16.20
2010,04,24,10,25,17.10
2010,04,24,10,26,13.10
2010,04,24,10,27,18.10
2010,04,24,10,28,14.50
2010,04,24,10,29,16.70
2010,04,24,10,30,17.20
2010,04,24,10,31,14.10
2010,04,24,10,32,16.20
2010,04,24,10,33,17.70
2010,04,24,10,34,14.40
2010,04,24,10,35,17.20
2010,04,24,10,36,16.90
2010,04,24,10,37,11.70
2010,04,24,10,38,13.30
2010,04,24,10,39,17.40
2010,04,24,10,40,20.50
2010,04,24,10,41,17.60
2010,04,24,10,42,18.00
2010,04,24,10,43,16.90
2010,04,24,10,44,13.10
2010,04,24,10,45,16.40
2010,04,24,10,46,23.70
2010,04,24,10,47,27.80
2010,04,24,10,48,20.60
2010,04,24,10,49,19.00
2010,04,24,10,50,14.30
2010,04,24,10,51,16.80
2010,04,24,10,52,19.20
2010,04,24,10,53,24.50
2010,04,24,10,54,24.10
2010,04,24,10,55,17.60
2010,04,24,10,56,15.50
2010,04,24,10,57,14.60
2010,04,24,10,58,13.90
2010,04,24,10,59,12.50
2010,04,24,11,00,17.00
2010,04,24,11,01,16.20
2010,04,24,11,02,19.40
2010,04,24,11,03,10.10
2010,04,24,11,04,12.70
2010,04,24,11,05,15.90
2010,04,24,11,06,12.50
2010,04,24,11,07,18.30
2010,04,24,11,08,10.90
2010,04,24,11,09,15.20
2010,04,24,11,10,11.80
2010,04,24,11,11,15.40
2010,04,24,11,12,16.10
2010,04,24,11,13,20.50
2010,04,24,11,14,17.00
2010,04,24,11,15,18.00
2010,04,24,11,16,12.00
2010,04,24,11,17,16.50
2010,04,24,11,18,17.40
2010,04,24,11,19,18.80
2010,04,24,11,20,18.80
2010,04,24,11,21,21.70
2010,04,24,11,22,13.50
2010,04,24,11,23,17.20
2010,04,24,11,24,16.90
2010,04,24,11,25,17.30
2010,04,24,11,26,16.20
2010,04,24,11,27,17.40
2010,04,24,11,28,14.10
2010,04,24,11,29,17.10
2010,04,24,11,30,16.30
2010,04,24,11,31,16.80
2010,04,24,11,32,20.50
2010,04,24,11,33,13.70
2010,04,24,11,34,15.40
2010,04,24,11,35,19.30
2010,04,24,11,36,21.70
2010,04,24,11,37,14.40
2010,04,24,11,38,13.50
2010,04,24,11,39,21.30
2010,04,24,11,40,26.10
2010,04,24,11,41,19.80
2010,04,24,11,42,31.00
2010,04,24,11,43,26.10
2010,04,24,11,44,23.70
2010,04,24,11,45,18.30
2010,04,24,11,46,15.10
2010,04,24,11,47,18.30
2010,04,24,11,48,22.10
2010,04,24,11,49,22.50
2010,04,24,11,50,19.70
2010,04,24,11,51,24.00
2010,04,24,11,52,17.30
2010,04,24,11,53,17.60
2010,04,24,11,54,18.50
2010,04,24,11,55,24.70
2010,04,24,11,56,19.60
2010,04,24,11,57,21.80
2010,04,24,11,58,15.00
2010,04,24,11,59,14.30
2010,04,24,12,00,15.70
2010,04,24,12,01,21.70
2010,04,24,12,02,22.60
2010,04,24,12,03,20.60
2010,04,24,12,04,22.80
2010,04,24,12,05,23.60
2010,04,24,12,06,20.90
2010,04,24,12,07,22.30
2010,04,24,12,08,10.60
2010,04,24,12,09,16.90
2010,04,24,12,10,14.40
2010,04,24,12,11,12.70
2010,04,24,12,12,18.20
2010,04,24,12,13,19.00
2010,04,24,12,14,21.90
2010,04,24,12,15,22.60
2010,04,24,12,16,19.40
2010,04,24,12,17,21.40
2010,04,24,12,18,18.50
2010,04,24,12,19,17.60
2010,04,24,12,20,22.50
2010,04,24,12,21,18.60
2010,04,24,12,22,21.40
2010,04,24,12,23,12.50
2010,04,24,12,24,18.80
2010,04,24,12,25,22.00
2010,04,24,12,26,22.00
2010,04,24,12,27,16.60
2010,04,24,12,28,15.80
2010,04,24,12,29,21.20
2010,04,24,12,30,20.50
2010,04,24,12,31,13.30
2010,04,24,12,32,18.50
2010,04,24,12,33,17.60
2010,04,24,12,34,16.20
2010,04,24,12,35,19.50
2010,04,24,12,36,18.00
2010,04,24,12,37,21.30
2010,04,24,12,38,15.40
2010,04,24,12,39,18.20
2010,04,24,12,40,19.60
2010,04,24,12,41,17.90
2010,04,24,12,42,18.00
2010,04,24,12,43,18.90
2010,04,24,12,44,19.80
2010,04,24,12,45,23.40
2010,04,24,12,46,19.10
2010,04,24,12,47,19.20
2010,04,24,12,48,26.80
2010,04,24,12,49,19.70
2010,04,24,12,50,25.20
2010,04,24,12,51,30.60
2010,04,24,12,52,30.20
2010,04,24,12,53,22.00
2010,04,24,12,54,20.40
2010,04,24,12,55,11.10
2010,04,24,12,56,15.30
2010,04,24,12,57,21.40
2010,04,24,12,58,29.90
2010,04,24,12,59,19.70
2010,04,24,13,00,29.10
2010,04,24,13,01,21.90
2010,04,24,13,02,23.00
2010,04,24,13,03,18.30
2010,04,24,13,04,24.80
2010,04,24,13,05,18.90
2010,04,24,13,06,20.40
2010,04,24,13,07,16.00
2010,04,24,13,08,16.20
2010,04,24,13,09,16.80
2010,04,24,13,10,15.00
2010,04,24,13,11,16.90
2010,04,24,13,12,13.30
2010,04,24,13,13,15.70
2010,04,24,13,14,13.10
2010,04,24,13,15,20.70
2010,04,24,13,16,16.80
2010,04,24,13,17,18.20
2010,04,24,13,18,25.20
2010,04,24,13,19,17.90
2010,04,24,13,20,15.10
2010,04,24,13,21,15.50
2010,04,24,13,22,13.30
2010,04,24,13,23,13.80
2010,04,24,13,24,15.60
2010,04,24,13,25,10.50
2010,04,24,13,26,18.50
2010,04,24,13,27,18.00
2010,04,24,13,28,19.20
2010,04,24,13,29,21.80
2010,04,24,13,30,15.50
2010,04,24,13,31,12.40
2010,04,24,13,32,14.70
2010,04,24,13,33,26.00
2010,04,24,13,34,32.70
2010,04,24,13,35,30.00
2010,04,24,13,36,31.10
2010,04,24,13,37,21.30
2010,04,24,13,38,22.90
2010,04,24,13,39,20.80
2010,04,24,13,40,22.40
2010,04,24,13,41,23.90
2010,04,24,13,42,20.40
2010,04,24,13,43,20.10
2010,04,24,13,44,22.40
2010,04,24,13,45,25.00
2010,04,24,13,46,20.60
2010,04,24,13,47,20.60
2010,04,24,13,48,18.10
2010,04,24,13,49,25.80
2010,04,24,13,50,25.50
2010,04,24,13,51,23.40
2010,04,24,13,52,21.30
2010,04,24,13,53,15.20
2010,04,24,13,54,20.30
2010,04,24,13,55,25.20
2010,04,24,13,56,14.50
2010,04,24,13,57,23.70
2010,04,24,13,58,20.60
2010,04,24,13,59,19.30
2010,04,24,14,00,12.20
2010,04,24,14,01,12.80
2010,04,24,14,02,12.10
2010,04,24,14,03,21.60
2010,04,24,14,04,20.10
2010,04,24,14,05,11.70
2010,04,24,14,06,13.00
2010,04,24,14,07,12.50
2010,04,24,14,08,18.20
2010,04,24,14,09,14.40
2010,04,24,14,10,19.20
2010,04,24,14,11,17.80
2010,04,24,14,12,27.40
2010,04,24,14,13,24.60
2010,04,24,14,14,20.50
2010,04,24,14,15,27.10
2010,04,24,14,16,24.50
2010,04,24,14,17,21.80
2010,04,24,14,18,25.50
2010,04,24,14,19,23.40
2010,04,24,14,20,19.10
2010,04,24,14,21,20.10
2010,04,24,14,22,31.40
2010,04,24,14,23,28.80
2010,04,24,14,24,23.70
2010,04,24,14,25,27.70
2010,04,24,14,26,28.20
2010,04,24,14,27,33.00
2010,04,24,14,28,39.20
2010,04,24,14,29,23.00
2010,04,24,14,30,43.20
2010,04,24,14,31,34.80
2010,04,24,14,32,31.90
2010,04,24,14,33,31.30
2010,04,24,14,34,28.00
2010,04,24,14,35,22.50
2010,04,24,14,36,23.40
2010,04,24,14,37,24.80
2010,04,24,14,38,27.30
2010,04,24,14,39,25.30
2010,04,24,14,40,25.50
2010,04,24,14,41,26.40
2010,04,24,14,42,20.30
2010,04,24,14,43,25.50
2010,04,24,14,44,29.60
2010,04,24,14,45,24.30
2010,04,24,14,46,31.00
2010,04,24,14,47,32.30
2010,04,24,14,48,23.90
2010,04,24,14,49,22.00
2010,04,24,14,50,22.30
2010,04,24,14,51,24.30
2010,04,24,14,52,28.20
2010,04,24,14,53,20.80
2010,04,24,14,54,22.70
2010,04,24,14,55,24.10
2010,04,24,14,56,23.10
2010,04,24,14,57,24.10
2010,04,24,14,58,25.30
2010,04,24,14,59,25.10
2010,04,24,15,00,29.50
2010,04,24,15,01,27.10
2010,04,24,15,02,24.00
2010,04,24,15,03,26.90
2010,04,24,15,04,35.20
2010,04,24,15,05,21.00
2010,04,24,15,06,37.60
2010,04,24,15,07,33.40
2010,04,24,15,08,27.00
2010,04,24,15,09,28.20
2010,04,24,15,10,29.40
2010,04,24,15,11,17.80
2010,04,24,15,12,19.70
2010,04,24,15,13,26.90
2010,04,24,15,14,22.10
2010,04,24,15,15,28.90
2010,04,24,15,16,26.70
2010,04,24,15,17,30.40
2010,04,24,15,18,24.30
2010,04,24,15,19,29.60
2010,04,24,15,20,32.00
2010,04,24,15,21,35.40
2010,04,24,15,22,29.10
2010,04,24,15,23,17.40
2010,04,24,15,24,19.30
2010,04,24,15,25,24.00
2010,04,24,15,26,20.80
2010,04,24,15,27,21.50
2010,04,24,15,28,26.60
2010,04,24,15,29,28.70
2010,04,24,15,30,26.30
2010,04,24,15,31,21.70
2010,04,24,15,32,21.30
2010,04,24,15,33,27.40
2010,04,24,15,34,24.90
2010,04,24,15,35,24.80
2010,04,24,15,36,32.10
2010,04,24,15,37,25.70
2010,04,24,15,38,30.20
2010,04,24,15,39,27.70
2010,04,24,15,40,28.10
2010,04,24,15,41,26.60
2010,04,24,15,42,20.30
2010,04,24,15,43,27.40
2010,04,24,15,44,21.30
2010,04,24,15,45,19.20
2010,04,24,15,46,24.70
2010,04,24,15,47,12.50
2010,04,24,15,48,17.00
2010,04,24,15,49,16.10
2010,04,24,15,50,20.90
2010,04,24,15,51,28.70
2010,04,24,15,52,20.90
2010,04,24,15,53,24.10
2010,04,24,15,54,21.10
2010,04,24,15,55,24.80
2010,04,24,15,56,21.00
2010,04,24,15,57,18.70
2010,04,24,15,58,19.30
2010,04,24,15,59,19.90
2010,04,24,16,00,18.00
2010,04,24,16,01,18.80
2010,04,24,16,02,29.00
2010,04,24,16,03,29.60
2010,04,24,16,04,22.20
2010,04,24,16,05,19.60
2010,04,24,16,06,25.70
2010,04,24,16,07,22.50
2010,04,24,16,08,23.80
2010,04,24,16,09,23.20
2010,04,24,16,10,13.20
2010,04,24,16,11,12.90
2010,04,24,16,12,18.80
2010,04,24,16,13,16.70
2010,04,24,16,14,15.60
2010,04,24,16,15,25.50
2010,04,24,16,16,19.70
2010,04,24,16,17,26.90
2010,04,24,16,18,22.90
2010,04,24,16,19,27.60
2010,04,24,16,20,20.00
2010,04,24,16,21,21.60
2010,04,24,16,22,20.90
2010,04,24,16,23,18.00
2010,04,24,16,24,16.60
2010,04,24,16,25,20.60
2010,04,24,16,26,26.10
2010,04,24,16,27,29.90
2010,04,24,16,28,29.50
2010,04,24,16,29,24.70
2010,04,24,16,30,18.80
2010,04,24,16,31,27.10
2010,04,24,16,32,27.60
2010,04,24,16,33,29.00
2010,04,24,16,34,24.20
2010,04,24,16,35,23.00
2010,04,24,16,36,21.30
2010,04,24,16,37,24.00
2010,04,24,16,38,13.30
2010,04,24,16,39,20.10
2010,04,24,16,40,25.70
2010,04,24,16,41,19.70
2010,04,24,16,42,21.70
2010,04,24,16,43,30.60
2010,04,24,16,44,31.00
2010,04,24,16,45,30.80
2010,04,24,16,46,22.50
2010,04,24,16,47,17.90
2010,04,24,16,48,20.10
2010,04,24,16,49,19.60
2010,04,24,16,50,28.10
2010,04,24,16,51,23.30
2010,04,24,16,52,17.10
2010,04,24,16,53,24.80
2010,04,24,16,54,13.90
2010,04,24,16,55,18.60
2010,04,24,16,56,21.10
2010,04,24,16,57,23.20
2010,04,24,16,58,18.50
2010,04,24,16,59,20.80
2010,04,24,17,00,27.20
2010,04,24,17,01,22.80
2010,04,24,17,02,19.00
2010,04,24,17,03,17.30
2010,04,24,17,04,13.80
2010,04,24,17,05,17.90
2010,04,24,17,06,22.70
2010,04,24,17,07,20.20
2010,04,24,17,08,21.30
2010,04,24,17,09,16.90
2010,04,24,17,10,19.00
2010,04,24,17,11,20.80
2010,04,24,17,12,20.50
2010,04,24,17,13,17.90
2010,04,24,17,14,17.40
2010,04,24,17,15,21.00
2010,04,24,17,16,22.30
2010,04,24,17,17,20.20
2010,04,24,17,18,16.30
2010,04,24,17,19,23.60
2010,04,24,17,20,14.50
2010,04,24,17,21,17.60
2010,04,24,17,22,26.70
2010,04,24,17,23,27.90
2010,04,24,17,24,26.50
2010,04,24,17,25,29.50
2010,04,24,17,26,21.60
2010,04,24,17,27,28.70
2010,04,24,17,28,30.80
2010,04,24,17,29,23.20
2010,04,24,17,30,15.40
2010,04,24,17,31,20.70
2010,04,24,17,32,16.70
2010,04,24,17,33,15.50
2010,04,24,17,34,14.60
2010,04,24,17,35,20.20